{"data":{"norad_id":54772,"intl_designator":"2022-175Q","name":"STARLINK-5452","alt_names":[],"object_type":"PAYLOAD","status":"ACTIVE","operator":null,"country":"US","launch_date":"2022-12-17","launch_site_code":"AFETR","launch_vehicle":null,"mission":null,"orbit_class":"UNKNOWN","rcs_meters":null,"size_class":null,"mass_kg":null,"dimensions":null,"purposes":["comms"],"wikipedia_slug":null,"has_3d_model":false,"image_url":null,"decayed_at":null,"tle_current":{"epoch":"2026-05-25T02:31:24.714624Z","epoch_age_seconds":62489,"freshness":"FRESH","line1":"1 54772U 22175Q   26145.10514716  .00000044  00000+0  20841-4 0  9991","line2":"2 54772  53.2124  46.2216 0001391  81.4772 278.6378 15.08838218191666","mean_motion":15.08838218,"eccentricity":0.0001391,"inclination_deg":53.2124,"raan_deg":46.2216,"arg_perigee_deg":81.4772,"mean_anomaly_deg":278.6378,"bstar":2.0841e-5,"rev_number":19166,"period_min":95.437667393444,"perigee_km":538.7865579108,"apogee_km":540.71111375033,"semimajor_km":6917.8858358306,"source":"CELESTRAK","updated_at":"2026-05-25T13:38:17.690562Z"}}}